Location: Siratepeler Tepesi
(39.1042°N, 32.0781°E)
Time: 00:22:15
(UTC+00:00)

Resurs 01 Rocket - Pass Details

Date: 11 April 2026
Orbit: 626 x 636 km, 97.7° (Epoch: 11 May)

Event Time Altitude Azimuth Distance (km) Brightness Sun altitude
Rises 17:21:14 0° 187° (S) 2,911 4.9 -11.3°
Reaches altitude 10° 17:23:35 10° 197° (SSW) 2,006 4.1 -11.7°
Maximum altitude 17:27:34 35° 263° (W) 1,029 3.3 -12.4°
Drops below altitude 10° 17:31:35 10° 329° (NNW) 2,015 5.0 -13.2°
Sets 17:33:57 0° 338° (NNW) 2,925 5.7 -13.6°
